CAPE
0 0 0 0 0 0 0 0 0 98 83 205 67 133 44 161 243 7 10 19 10 3 46 82 120 171 145 169 196 174 0 47 40 220 223 172 182 249 342 366 373 513 632 767
0 0 0 0 0 0 0 0 1 227 205 185 97 63 12 86 236 101 26 20 10 1 43 139 124 165 137 107 143 175 109 158 162 100 159 170 116 162 337 396 298 273 555 542
0 0 0 0 0 0 0 0 0 9 149 60 129 57 55 102 193 199 145 59 5 0 10 90 139 164 151 131 101 140 91 30 167 204 256 236 248 124 120 380 534 459 580 533
0 0 0 0 0 0 0 0 0 0 72 5 90 8 25 34 63 120 179 150 11 0 0 46 130 136 158 126 100 72 38 0 45 211 330 213 238 307 197 293 376 539 836 826
0 0 0 0 0 0 0 0 0 0 30 35 73 2 0 0 8 1 145 141 36 0 0 5 47 104 111 116 163 79 22 0 21 88 210 231 293 234 235 249 189 588 858 776
0 0 0 0 0 0 0 0 0 0 0 1 0 0 0 15 44 93 228 144 34 22 0 0 3 16 77 78 190 191 110 58 83 114 110 135 232 368 331 267 137 480 832 767
0 0 0 0 0 0 0 0 0 1 16 3 0 3 0 46 126 114 209 151 25 28 12 0 0 1 37 54 163 195 185 126 119 239 213 209 290 257 230 347 221 432 662 719
0 0 0 0 0 0 0 0 0 0 23 3 0 0 0 9 290 339 224 140 58 60 19 17 0 0 11 26 130 145 146 133 141 218 305 339 293 217 152 310 373 426 516 624
0 0 0 0 0 0 0 0 0 0 0 0 1 0 23 29 49 80 97 37 23 51 146 33 26 6 20 41 99 164 152 141 133 112 102 310 302 267 133 25 209 347 391 489
0 0 0 0 0 0 0 0 0 0 0 0 10 0 0 51 45 1 1 4 0 0 22 72 84 131 49 28 158 168 345 201 182 195 164 173 321 336 263 185 299 208 153 345
0 0 0 0 0 0 0 0 0 0 0 0 7 0 0 7 0 0 0 0 0 0 0 0 4 156 178 96 162 158 180 221 213 295 319 281 300 366 328 262 154 191 68 215
0 0 0 0 0 0 0 0 0 0 0 0 0 0 0 0 0 0 0 0 1 1 3 1 0 1 74 144 190 195 139 70 29 116 258 399 516 528 370 288 370 373 683 555
0 0 0 0 0 0 0 0 0 0 0 0 0 0 0 0 0 0 0 0 0 1 1 2 1 1 17 43 130 133 71 28 7 36 71 123 129 224 354 344 551 459 578 540
0 0 0 5 0 0 0 0 0 0 0 0 0 0 0 0 0 0 0 0 0 0 0 1 1 0 1 0 5 42 41 27 19 51 20 8 46 44 42 0 58 254 434 609
0 0 0 0 0 0 0 0 0 0 0 0 0 0 0 0 0 0 0 0 0 0 0 0 0 0 0 0 0 0 0 6 17 7 17 3 3 0 0 6 4 0 11 183
0 0 0 0 0 0 0 0 0 0 0 0 0 0 0 0 0 0 0 0 0 0 0 0 0 0 0 0 1 2 1 0 0 0 0 0 0 5 0 15 0 0 0 15
0 0 0 0 0 8 0 0 0 10 26 0 0 0 0 0 0 0 0 0 0 0 0 0 0 0 0 0 0 0 0 0 0 0 1 1 1 0 0 0 0 0 0 0
0 0 0 0 0 0 0 0 0 0 0 0 0 0 0 0 0 0 0 0 0 0 0 0 0 0 0 0 0 0 0 0 0 0 0 0 0 0 0 0 0 0 0 0
0 0 0 0 0 0 0 0 0 0 0 0 0 0 0 0 0 0 0 0 0 0 0 0 0 0 0 0 0 0 0 0 0 0 0 0 0 0 0 0 0 0 0 0
0 0 0 0 0 0 0 0 0 0 0 0 0 0 0 0 0 0 0 0 0 0 0 0 0 0 0 0 0 0 0 0 0 0 0 0 0 0 0 0 0 0 0 0
0 0 0 0 0 0 0 0 0 0 0 2 1 0 0 0 0 0 0 0 0 0 0 0 0 0 0 0 0 0 0 0 0 0 0 0 0 0 0 0 0 0 0 0
0 0 0 0 0 0 0 0 0 0 0 0 0 0 0 0 0 0 0 0 0 0 0 0 0 0 0 0 0 0 0 0 0 0 0 0 0 0 0 0 0 0 0 0
0 0 0 0 0 0 0 0 0 0 0 0 0 0 0 0 0 0 0 0 0 0 0 0 0 0 0 0 0 0 0 0 0 0 0 0 0 0 0 0 0 0 0 0
0 0 0 0 0 0 0 0 0 0 0 0 0 0 0 0 0 0 0 0 0 0 0 0 0 0 0 0 0 0 0 0 0 0 0 0 0 0 0 0 0 0 0 0
0 0 0 0 0 0 0 0 0 0 0 0 0 0 0 0 0 0 0 0 0 0 0 0 0 0 0 0 0 0 0 0 0 0 0 0 0 0 0 0 0 0 0 0
0 0 0 0 0 0 0 0 0 0 0 0 0 0 0 0 0 0 0 0 0 0 0 0 0 0 0 0 0 0 0 0 0 0 0 0 0 0 0 0 0 0 0 0
CIN
-0 -0 -0 -0 -0 -0 -0 -0 -0 -10 -58 -17 -20 -43 -135 -58 -26 -18 -17 -21 -36 -53 -81 -101 -103 -88 -96 -103 -104 -83 -0 -103 -127 -65 -51 -48 -53 -65 -59 -57 -52 -55 -45 -43
-0 -0 -0 -0 -0 -0 -0 -0 -5 -44 -55 -19 -37 -54 -110 -97 -62 -35 -18 -22 -44 -53 -93 -98 -96 -82 -107 -125 -114 -91 -94 -85 -86 -72 -62 -60 -68 -67 -61 -65 -60 -65 -46 -45
-0 -0 -0 -0 -0 -0 -0 -0 -0 -44 -74 -103 -59 -57 -129 -107 -77 -47 -40 -32 -51 -111 -123 -99 -92 -101 -116 -129 -129 -116 -107 -54 -83 -76 -68 -79 -77 -93 -67 -52 -46 -52 -49 -49
-0 -0 -0 -0 -0 -0 -0 -0 -0 -0 -35 -30 -90 -18 -129 -151 -94 -58 -42 -28 -47 -9 -0 -95 -78 -93 -115 -144 -144 -140 -118 -0 -92 -84 -49 -46 -52 -38 -50 -50 -48 -44 -40 -33
-0 -0 -0 -0 -0 -0 -0 -0 -0 -0 -46 -31 -50 -17 -0 -0 -61 -12 -89 -64 -95 -1 -0 -119 -89 -93 -131 -143 -141 -132 -120 -4 -123 -102 -66 -42 -45 -65 -65 -61 -54 -41 -36 -37
-0 -0 -0 -0 -0 -0 -0 -0 -0 -0 -0 -19 -0 -0 -0 -138 -200 -172 -119 -143 -125 -126 -0 -0 -85 -108 -124 -139 -112 -117 -106 -112 -117 -99 -108 -78 -62 -60 -54 -61 -72 -46 -29 -27
-0 -0 -0 -0 -0 -0 -0 -0 -0 -16 -31 -9 -0 -27 -0 -190 -167 -166 -158 -149 -121 -143 -113 -0 -0 -165 -145 -106 -106 -113 -101 -111 -113 -100 -112 -75 -59 -66 -67 -48 -68 -43 -30 -26
-0 -0 -0 -0 -0 -0 -0 -0 -0 -0 -11 -8 -0 -0 -0 -110 -191 -124 -130 -156 -136 -109 -123 -129 -0 -0 -197 -151 -124 -107 -117 -96 -105 -103 -75 -64 -58 -68 -73 -63 -64 -47 -45 -31
-0 -0 -0 -0 -0 -0 -0 -0 -0 -0 -0 -0 -16 -3 -252 -298 -296 -260 -220 -246 -266 -217 -105 -121 -138 -159 -175 -165 -130 -113 -144 -109 -108 -91 -71 -69 -77 -70 -70 -113 -84 -63 -63 -49
-0 -0 -0 -0 -0 -0 -0 -0 -0 -0 -0 -0 -77 -12 -0 -229 -286 -0 -142 -230 -0 -0 -298 -215 -172 -129 -158 -167 -132 -126 -103 -97 -93 -69 -47 -60 -59 -67 -63 -76 -66 -89 -89 -83
-0 -0 -0 -0 -0 -0 -0 -0 -0 -0 -0 -0 -36 -0 -0 -207 -0 -0 -0 -0 -0 -0 -0 -0 -86 -170 -156 -161 -114 -82 -117 -93 -57 -52 -42 -42 -46 -49 -53 -54 -74 -78 -127 -107
-0 -0 -0 -0 -0 -0 -0 -0 -0 -0 -0 -0 -0 -0 -0 -0 -0 -0 -0 -0 -0 -0 -0 -0 -0 -12 -176 -159 -134 -110 -100 -122 -101 -103 -65 -40 -32 -35 -39 -34 -33 -55 -52 -76
-0 -0 -0 -0 -0 -0 -0 -0 -0 -0 -0 -0 -0 -0 -0 -0 -0 -0 -0 -0 -0 -0 -0 -0 -0 -243 -304 -241 -164 -144 -113 -133 -144 -151 -100 -93 -97 -74 -54 -48 -43 -41 -32 -67
-0 -0 -0 -21 -0 -0 -0 -0 -0 -0 -0 -0 -0 -0 -0 -0 -0 -0 -0 -0 -0 -0 -0 -0 -0 -0 -201 -0 -289 -199 -133 -111 -67 -68 -67 -83 -138 -152 -148 -0 -173 -106 -70 -47
-0 -0 -0 -0 -0 -0 -0 -0 -0 -0 -0 -0 -0 -0 -0 -0 -0 -0 -0 -0 -0 -0 -0 -0 -0 -0 -0 -0 -0 -0 -17 -116 -106 -88 -42 -59 -18 -0 -0 -112 -188 -0 -130 -134
-0 -0 -0 -0 -38 -0 -0 -0 -0 -2 -0 -0 -0 -0 -0 -0 -0 -0 -0 -0 -0 -0 -0 -0 -0 -0 -0 -0 -0 -0 -0 -0 -0 -0 -0 -0 -0 -188 -0 -125 -13 -0 -0 -192
-0 -0 -0 -0 -0 -32 -0 -0 -0 -90 -180 -0 -0 -0 -0 -0 -0 -0 -0 -0 -0 -0 -0 -0 -0 -0 -0 -0 -0 -0 -0 -0 -0 -0 -0 -0 -0 -0 -0 -0 -0 -0 -0 -0
-0 -0 -0 -0 -0 -0 -0 -0 -0 -0 -0 -0 -0 -0 -0 -0 -0 -0 -0 -0 -0 -0 -0 -0 -0 -0 -0 -0 -0 -0 -0 -0 -0 -0 -0 -0 -0 -0 -0 -0 -0 -0 -0 -0
-0 -0 -0 -0 -0 -0 -0 -0 -0 -0 -0 -0 -0 -0 -0 -0 -0 -0 -0 -0 -0 -0 -0 -0 -0 -0 -0 -0 -0 -0 -0 -0 -0 -0 -0 -0 -0 -0 -0 -0 -0 -0 -0 -0
-0 -0 -0 -0 -0 -0 -0 -0 -0 -0 -0 -0 -0 -0 -0 -0 -0 -0 -0 -0 -0 -0 -0 -0 -0 -0 -0 -0 -0 -0 -0 -0 -0 -0 -0 -0 -0 -0 -0 -0 -0 -0 -0 -0
-0 -0 -0 -0 -0 -0 -0 -0 -0 -0 -0 -171 -249 -0 -0 -0 -0 -0 -0 -0 -0 -0 -0 -0 -0 -0 -0 -0 -0 -0 -0 -0 -0 -0 -0 -0 -0 -0 -0 -0 -0 -0 -0 -0
-0 -0 -0 -0 -0 -0 -0 -0 -0 -0 -0 -0 -0 -0 -0 -0 -0 -0 -0 -0 -0 -0 -0 -0 -0 -0 -0 -0 -0 -0 -0 -0 -0 -0 -0 -0 -0 -0 -0 -0 -0 -0 -0 -0
-0 -0 -0 -0 -0 -0 -0 -0 -0 -0 -0 -0 -0 -0 -0 -0 -0 -0 -0 -0 -0 -0 -0 -0 -0 -0 -0 -0 -0 -0 -0 -0 -0 -0 -0 -0 -0 -0 -0 -0 -0 -0 -0 -0
-0 -0 -0 -0 -0 -0 -0 -0 -0 -0 -0 -0 -0 -0 -0 -0 -0 -0 -0 -0 -0 -0 -0 -0 -0 -0 -0 -0 -0 -0 -0 -0 -0 -0 -0 -0 -0 -0 -0 -0 -0 -0 -0 -0
-0 -0 -0 -0 -0 -0 -0 -0 -0 -0 -0 -0 -0 -0 -0 -0 -0 -0 -0 -0 -0 -0 -0 -0 -0 -0 -0 -0 -0 -0 -0 -0 -0 -0 -0 -0 -0 -0 -0 -0 -0 -0 -0 -0
-0 -0 -0 -0 -0 -0 -0 -0 -0 -0 -0 -0 -0 -0 -0 -0 -0 -0 -0 -0 -0 -0 -0 -0 -0 -0 -0 -0 -0 -0 -0 -0 -0 -0 -0 -0 -0 -0 -0 -0 -0 -0 -0 -0
Wind_Speed
22 27 31 27 22 18 17 18 21 17 10 14 17 15 9 1 2 33 31 30 26 25 22 23 22 18 19 17 19 18 18 17 20 17 14 23 23 22 21 20 20 19 21 22
24 32 30 25 24 23 21 20 19 13 11 17 8 14 4 5 16 11 22 16 18 20 17 19 24 22 21 20 19 17 18 17 17 17 13 14 21 22 21 20 20 21 21 21
27 22 25 28 28 27 24 22 20 18 14 13 10 12 14 18 16 22 33 29 14 21 21 18 21 24 23 18 18 20 17 19 15 11 9 8 13 18 21 20 20 21 21 22
27 27 24 28 31 26 29 23 20 17 17 22 15 24 17 9 20 31 34 36 15 20 21 22 23 21 23 20 15 19 18 15 16 10 11 17 24 23 22 22 21 21 21 22
24 25 27 31 32 25 27 21 23 23 21 20 22 24 22 8 8 12 20 26 19 18 18 21 20 19 21 21 17 17 14 13 8 13 9 9 19 25 20 23 22 21 21 22
28 24 24 28 26 28 27 25 22 21 24 32 24 22 23 13 9 8 8 14 16 21 18 20 17 10 7 8 12 12 13 13 9 5 8 7 13 20 22 21 24 23 21 22
27 31 28 25 28 23 24 24 27 26 26 27 21 20 22 22 18 9 9 11 10 10 13 12 12 16 16 10 12 10 11 10 9 2 3 2 10 25 25 22 22 24 23 23
26 29 25 21 27 23 23 25 26 31 29 25 19 26 23 19 17 10 11 13 12 14 11 12 13 16 12 10 11 9 10 8 5 2 7 12 9 8 26 23 23 25 24 23
24 26 19 18 20 21 23 25 23 22 22 23 23 23 22 19 16 12 12 11 13 13 17 16 20 11 11 12 10 11 9 6 5 7 10 13 13 13 24 26 25 24 26 26
24 27 21 21 19 18 20 17 25 25 30 30 25 24 24 22 20 16 14 16 16 16 17 18 21 19 15 11 16 13 12 8 7 12 16 18 16 17 24 22 24 27 26 26
21 23 23 19 20 22 20 23 21 22 25 29 29 29 23 21 16 16 16 16 17 18 20 22 22 19 17 15 15 15 15 16 14 13 19 23 25 22 24 23 23 25 25 27
18 19 23 21 17 13 12 21 23 30 30 25 27 28 19 14 14 13 14 16 14 16 19 18 19 18 15 14 13 11 16 16 15 17 18 23 28 29 30 28 29 25 26 27
18 20 24 21 18 16 16 20 21 23 25 31 30 28 17 16 14 15 16 13 13 16 16 16 14 15 13 12 10 12 15 13 15 18 18 16 19 21 25 27 30 30 30 28
16 17 20 24 17 16 18 20 21 22 29 30 32 28 23 19 17 15 13 12 13 13 14 14 13 12 12 10 12 14 11 9 12 17 22 16 17 18 20 20 21 22 25 28
16 20 17 15 12 13 17 20 23 25 23 29 29 26 25 20 17 15 12 10 11 11 12 13 12 12 13 11 10 9 11 9 9 11 21 20 17 18 20 23 23 23 23 23
17 20 20 23 26 23 24 23 24 23 21 22 19 26 18 15 14 14 14 14 12 10 10 9 10 10 9 9 10 10 11 10 9 12 13 13 21 20 21 20 22 23 24 24
17 18 21 25 25 24 34 24 22 21 22 22 27 26 13 13 12 11 13 15 13 10 8 8 8 8 8 8 7 8 8 8 10 11 14 14 15 17 22 24 24 23 23 25
17 18 19 23 20 31 28 26 19 15 18 20 19 12 13 12 12 11 11 10 7 5 6 6 6 7 7 7 7 7 8 9 10 12 14 15 15 15 17 22 25 26 26 27
15 16 19 23 25 24 22 26 29 26 25 12 9 8 10 11 10 13 13 11 7 3 3 4 6 7 7 7 7 8 9 10 12 15 15 16 15 15 17 18 19 22 26 28
15 13 18 20 24 29 24 24 28 26 34 17 12 8 9 10 18 16 9 6 5 2 2 3 5 6 7 8 8 9 11 13 14 16 16 17 17 18 19 20 20 20 20 23
17 18 18 20 23 25 23 24 25 29 31 19 16 12 11 13 20 10 6 5 2 1 2 3 5 7 8 9 10 11 13 15 16 17 18 18 18 18 20 20 20 22 22 23
16 15 15 17 20 25 20 22 26 24 23 21 19 19 15 18 12 8 6 5 5 4 5 6 7 9 10 11 12 13 15 16 18 19 19 20 20 20 21 21 22 22 23 24
19 11 16 15 17 17 18 16 16 18 20 19 17 20 18 15 13 11 10 10 10 9 10 10 11 13 15 15 15 16 18 18 19 19 20 22 21 22 22 22 23 23 24 25
10 9 12 12 13 13 16 16 16 16 16 13 9 13 15 17 16 15 13 12 12 12 12 12 13 16 17 18 18 18 20 21 22 22 22 22 23 23 23 23 23 24 25 27
9 10 12 12 10 15 11 13 12 15 13 11 8 8 10 12 16 14 15 15 15 15 14 15 16 16 16 17 18 19 20 21 22 23 23 23 23 24 24 24 25 25 25 26
6 8 6 8 12 13 16 13 12 10 8 8 9 13 13 13 15 16 18 17 15 15 15 16 17 16 16 17 18 19 19 20 20 21 22 23 23 23 24 26 27 25 26 28
Wind_Direction
237 237 234 239 247 255 261 262 263 266 281 247 257 271 115 123 98 176 167 159 153 154 149 147 146 139 135 129 128 122 115 113 122 110 93 194 165 197 205 193 192 200 185 182
239 237 238 244 245 249 256 258 263 271 274 262 259 271 252 148 147 154 162 150 145 145 147 146 148 145 145 142 138 128 127 121 122 123 108 252 218 197 206 206 201 201 199 200
238 247 244 242 243 245 252 255 260 269 267 283 295 285 273 260 266 248 224 233 151 154 152 151 149 150 149 144 143 143 134 133 122 105 83 310 273 239 213 207 199 192 205 198
244 246 248 242 242 245 246 251 264 267 261 263 268 263 277 273 258 238 205 200 166 162 159 160 157 155 155 153 144 148 141 132 131 113 114 133 207 211 215 199 197 203 185 180
243 246 245 243 240 243 244 257 264 262 261 268 264 269 280 272 241 183 174 176 168 168 168 163 164 162 161 157 151 148 140 132 120 132 121 109 234 219 254 214 211 197 182 184
247 254 253 245 246 243 247 256 268 268 259 256 262 263 272 276 244 228 191 183 175 168 168 169 167 171 185 172 153 147 147 143 135 122 131 126 220 253 239 240 203 190 185 188
250 248 251 247 243 250 246 248 249 252 251 253 258 264 268 270 272 233 195 224 218 203 182 186 192 177 173 180 167 162 154 154 148 145 284 257 137 199 227 240 196 186 195 199
243 240 241 245 242 246 245 243 244 247 249 252 263 259 263 280 277 262 252 251 255 257 227 209 191 183 193 186 180 173 165 166 177 233 274 270 281 293 239 252 247 196 192 189
243 244 249 249 251 246 245 245 249 258 262 256 260 262 266 273 266 261 252 255 261 264 258 256 252 214 212 191 196 182 176 189 228 270 271 264 270 276 253 241 250 252 221 213
248 243 253 253 259 254 249 248 246 251 249 248 258 259 261 260 257 260 256 256 264 267 266 267 254 256 254 237 260 256 261 260 260 277 270 264 265 269 261 268 259 240 242 242
249 247 249 253 257 249 248 250 255 255 255 252 252 257 264 264 256 257 262 268 268 268 274 264 258 262 262 256 257 269 269 269 277 275 269 264 260 266 265 267 266 258 259 255
260 252 246 249 272 253 264 259 254 249 249 257 258 258 272 265 260 265 267 269 275 281 278 271 267 268 271 270 260 274 267 275 282 277 274 266 259 258 259 262 261 270 265 262
264 255 245 244 256 266 267 271 264 258 256 251 253 258 265 261 266 271 270 276 280 283 282 279 280 278 280 276 288 279 271 267 292 271 277 277 274 271 267 265 260 264 265 267
268 261 253 242 246 261 265 274 267 261 253 251 253 258 255 255 259 270 274 282 285 286 283 289 288 286 289 293 301 285 294 297 309 268 267 279 278 280 278 281 284 281 274 268
271 257 255 252 259 275 281 280 274 260 260 255 257 255 253 253 259 264 273 289 287 294 293 288 291 290 285 291 303 311 327 336 327 292 281 275 282 284 286 277 277 279 281 280
275 263 259 259 253 267 272 287 280 269 262 266 260 261 263 259 264 265 268 272 281 303 308 306 296 297 302 304 299 300 297 304 342 321 335 308 281 281 279 288 282 278 279 282
275 270 266 260 263 255 259 274 286 274 272 263 260 266 248 254 260 264 268 270 277 292 305 309 317 316 316 312 327 324 315 314 327 329 333 335 316 290 273 282 284 283 283 283
282 276 277 262 263 254 267 260 283 292 288 278 276 254 245 251 262 264 270 276 289 306 309 322 325 329 329 340 348 345 334 333 329 336 335 333 336 317 289 298 287 280 282 282
305 290 278 265 262 269 266 258 260 271 277 293 281 256 257 255 268 274 273 272 275 297 328 338 347 346 355 9 8 6 354 347 336 332 331 328 327 325 328 333 321 299 283 281
314 305 280 272 267 262 268 272 273 270 265 265 263 261 248 243 256 264 258 260 271 293 317 348 348 353 360 357 1 348 333 334 332 334 335 334 330 322 316 313 317 323 316 294
292 294 285 279 276 276 280 282 285 259 270 270 256 245 234 248 271 251 231 244 253 276 302 331 338 337 333 337 330 325 326 325 328 326 328 331 333 330 324 319 318 311 304 302
297 306 303 295 286 277 298 288 274 280 293 280 261 250 245 264 261 229 231 225 240 264 290 301 310 314 318 319 317 314 315 317 318 316 317 319 321 323 322 321 317 313 307 298
281 335 309 311 304 299 302 307 306 305 304 286 266 258 252 253 242 233 239 244 255 269 281 291 298 302 305 308 310 306 307 312 312 312 311 308 312 317 318 317 315 313 310 306
101 37 356 348 333 325 314 311 311 311 312 315 284 265 256 253 249 252 253 257 264 272 279 288 294 298 300 301 303 304 302 305 304 304 305 307 308 311 314 316 314 310 308 305
351 1 343 347 357 336 342 329 328 318 319 314 303 278 257 251 252 252 259 262 267 273 281 287 293 297 296 299 302 302 302 303 302 303 304 305 306 307 307 309 310 308 309 308
12 345 352 353 338 327 325 323 328 328 321 306 289 284 274 257 254 257 262 264 267 274 281 287 293 295 295 297 299 301 304 307 305 304 305 306 306 307 307 306 305 310 310 308